CST,Max TemperatureF,Mean TemperatureF,Min TemperatureF,Max Dew PointF,MeanDew PointF,Min DewpointF,Max Humidity, Mean Humidity, Min Humidity, Max Sea Level PressureIn, Mean Sea Level PressureIn, Min Sea Level PressureIn, Max VisibilityMiles, Mean VisibilityMiles, Min VisibilityMiles, Max Wind SpeedMPH, Mean Wind SpeedMPH, Max Gust SpeedMPH,PrecipitationIn, CloudCover, Events, WindDirDegrees
2014-1-1,14,10,6,9,4,1,85,78,67,30.29,30.26,30.22,10,6,1,22,16,23,0.00,8,,42
2014-1-2,12,2,-9,3,-1,-18,92,73,65,30.46,30.34,30.24,10,10,5,18,13,,0.00,5,,349
2014-1-3,21,5,-11,14,6,-22,85,73,59,30.44,30.07,29.80,10,10,7,23,13,31,0.00,0,,181
2014-1-4,30,26,19,27,19,10,86,75,64,30.06,29.88,29.76,10,8,1,24,18,33,0.00,5,,255
2014-1-5,19,4,-11,10,-3,-20,70,63,52,30.25,30.15,30.06,10,9,4,28,19,34,0.00,2,,347
2014-1-6,-9,-14,-18,-20,-25,-29,64,55,45,30.32,30.29,30.24,10,6,2,30,21,32,0.00,2,,288
2014-1-7,5,-4,-13,-6,-15,-24,71,60,50,30.31,30.26,30.21,10,10,10,15,8,,0.00,1,,204
2014-1-8,8,0,-7,0,-10,-20,77,63,52,30.51,30.42,30.26,10,10,10,9,4,,0.00,0,,334
2014-1-9,24,10,-5,23,2,-29,93,71,18,30.51,30.33,30.12,10,8,2,14,7,,0.00,5,,112
2014-1-10,37,32,26,36,31,25,100,94,87,30.11,29.79,29.50,7,2,0,18,9,24,0.28,8,,165
2014-1-11,33,30,28,34,27,25,100,84,70,29.85,29.64,29.49,10,8,0,25,15,32,0.03,7,,286
2014-1-12,41,32,23,30,27,21,93,79,61,29.86,29.69,29.55,10,10,5,18,12,24,0.00,1,,179
2014-1-13,37,30,24,30,27,21,93,83,70,29.80,29.68,29.58,10,10,8,22,8,28,0.00,3,,269
2014-1-14,35,26,17,30,21,12,87,77,64,30.01,29.78,29.60,10,9,2,37,17,48,0.03,6,,268
2014-1-15,23,14,6,16,7,1,85,76,67,30.16,30.04,29.75,10,10,5,23,13,29,0.00,2,,266
2014-1-16,35,22,10,30,17,1,87,73,59,29.82,29.64,29.51,10,10,10,34,19,40,0.00,6,,263
2014-1-17,15,10,5,7,4,0,85,76,67,30.04,29.94,29.82,10,10,3,23,17,29,0.00,5,,295
2014-1-18,21,12,3,18,9,-2,92,84,72,29.97,29.82,29.64,10,7,0,25,10,31,0.00,4,,117
2014-1-19,37,20,3,28,19,0,92,77,65,29.92,29.72,29.58,10,10,7,23,14,29,0.00,0,,251
2014-1-20,35,24,12,28,21,7,93,80,70,30.19,29.92,29.71,10,8,1,25,13,32,0.00,5,,319
2014-1-21,10,2,-5,7,-6,-11,85,69,61,30.41,30.30,30.19,10,10,2,24,13,33,0.00,2,,315
2014-1-22,14,6,-2,9,0,-13,79,72,60,30.33,30.08,29.97,10,8,2,28,12,32,0.00,4,,271
2014-1-23,0,-4,-9,-8,-13,-15,92,71,60,30.68,30.57,30.34,10,10,10,20,15,26,0.00,0,,290
2014-1-24,30,10,-9,28,6,-15,93,68,53,30.54,29.97,29.50,10,9,2,32,16,40,0.00,5,,226
2014-1-25,33,17,1,30,6,-6,93,66,46,29.94,29.76,29.50,10,9,3,31,20,39,0.00,2,,294
2014-1-26,32,16,0,25,12,-8,86,76,67,30.03,29.60,29.42,10,6,0,38,17,54,0.01,6,,284
2014-1-27,0,-6,-11,-6,-13,-24,84,69,54,30.48,30.33,30.03,10,8,2,28,21,34,0.00,1,,301
2014-1-28,6,-4,-14,-4,-15,-27,85,59,45,30.48,30.38,30.26,10,10,10,20,6,22,0.00,0,,266
2014-1-29,26,10,-5,12,-2,-22,79,56,17,30.25,30.11,29.89,10,10,10,21,7,25,0.00,0,,218
2014-1-30,33,22,12,27,15,7,86,67,51,30.00,29.77,29.62,10,9,0,36,21,44,0.00,3,,229
2014-1-31,14,10,5,7,2,0,85,72,62,30.22,30.13,30.00,10,10,10,15,8,,0.00,1,,309